Es ist keine erh├Âhte Aufmerksamkeit aufgrund des Wetters notwendig.    Es gibt keine Warnungen.
Webcam Vorhersage DWD Regenradar Wetterlage NRW Blitze Wind GFS-Modell
webcam


Kleve -D├╝ffelward more information Kleve -D├╝ffelward


Goch more information Goch


Thunder radar more information blitzortung!


Weitere Templates dieser Seite und andere Webseiten:

Meteotemplate

Awekas - Template

weather34 - Template

Wetter aus Willich

Hubert Reyers' Wetter


te
World Weather Websites
 

METAR-Meldungen aus der Umgebung

   
EHDL - Nijmegen
Aktualisierung: 24-07-2021 04:25
Bew├Âlkt  
Bew├Âlkt  
   Wind: ONO 13 km/h
Wind: ONO 13 km/h
Temperatur: 14°C
Taupunkt: 13°C
Luftfeuchte: 94%
Luftdruck: 1012 hPa
Bew├Âlkt: Bew├Âlkt
Sichtbarkeit: More than 10 km
Bew├Âlkung: Bew├Âlkt 24000 ft
EHDL 240225Z AUTO 06007KT 330V120 9999 OVC240 14/13 Q1012 BLU
EHDL - Arnhem
Aktualisierung: 24-07-2021 04:25
Bew├Âlkt  
Bew├Âlkt  
   Wind: ONO 13 km/h
Wind: ONO 13 km/h
Temperatur: 14°C
Taupunkt: 13°C
Luftfeuchte: 94%
Luftdruck: 1012 hPa
Bew├Âlkt: Bew├Âlkt
Sichtbarkeit: More than 10 km
Bew├Âlkung: Bew├Âlkt 24000 ft
EHDL 240225Z AUTO 06007KT 330V120 9999 OVC240 14/13 Q1012 BLU
EHAM - Amsterdam
Aktualisierung: 24-07-2021 04:25
Klar  
Klar  
   Wind: ONO 18.5 km/h
Wind: ONO 18.5 km/h
Temperatur: 16°C
Taupunkt: 13°C
Luftfeuchte: 83%
Luftdruck: 1011 hPa
Sichtbarkeit: More than 10 km
Bew├Âlkung: Klar
EHAM 240225Z 06010KT 030V090 CAVOK 16/13 Q1011 NOSIG
EHDL - Ede
Aktualisierung: 24-07-2021 04:25
Bew├Âlkt  
Bew├Âlkt  
   Wind: ONO 13 km/h
Wind: ONO 13 km/h
Temperatur: 14°C
Taupunkt: 13°C
Luftfeuchte: 94%
Luftdruck: 1012 hPa
Bew├Âlkt: Bew├Âlkt
Sichtbarkeit: More than 10 km
Bew├Âlkung: Bew├Âlkt 24000 ft
EHDL 240225Z AUTO 06007KT 330V120 9999 OVC240 14/13 Q1012 BLU
EHDL - Emmen
Aktualisierung: 24-07-2021 04:25
Bew├Âlkt  
Bew├Âlkt  
   Wind: ONO 13 km/h
Wind: ONO 13 km/h
Temperatur: 14°C
Taupunkt: 13°C
Luftfeuchte: 94%
Luftdruck: 1012 hPa
Bew├Âlkt: Bew├Âlkt
Sichtbarkeit: More than 10 km
Bew├Âlkung: Bew├Âlkt 24000 ft
EHDL 240225Z AUTO 06007KT 330V120 9999 OVC240 14/13 Q1012 BLU
EHAM - Den Haag
Aktualisierung: 24-07-2021 04:25
Klar  
Klar  
   Wind: ONO 18.5 km/h
Wind: ONO 18.5 km/h
Temperatur: 16°C
Taupunkt: 13°C
Luftfeuchte: 83%
Luftdruck: 1011 hPa
Sichtbarkeit: More than 10 km
Bew├Âlkung: Klar
EHAM 240225Z 06010KT 030V090 CAVOK 16/13 Q1011 NOSIG
EHAM - Apeldoorn
Aktualisierung: 24-07-2021 04:25
Klar  
Klar  
   Wind: ONO 18.5 km/h
Wind: ONO 18.5 km/h
Temperatur: 16°C
Taupunkt: 13°C
Luftfeuchte: 83%
Luftdruck: 1011 hPa
Sichtbarkeit: More than 10 km
Bew├Âlkung: Klar
EHAM 240225Z 06010KT 030V090 CAVOK 16/13 Q1011 NOSIG
EHAM - Leeuwarden
Aktualisierung: 24-07-2021 04:25
Klar  
Klar  
   Wind: ONO 18.5 km/h
Wind: ONO 18.5 km/h
Temperatur: 16°C
Taupunkt: 13°C
Luftfeuchte: 83%
Luftdruck: 1011 hPa
Sichtbarkeit: More than 10 km
Bew├Âlkung: Klar
EHAM 240225Z 06010KT 030V090 CAVOK 16/13 Q1011 NOSIG
TNCC - Willemstad
Aktualisierung: 24-07-2021 04:00
leicht bew├Âlkt  
leicht bew├Âlkt  
   Wind: Osten 16.7 km/h
Wind: Osten 16.7 km/h
Temperatur: 28°C
Hitzeindex: 33°C
Taupunkt: 26°C
Luftfeuchte: 89%
Luftdruck: 1014 hPa
Bew├Âlkt: leicht bew├Âlkt
Sichtbarkeit: More than 10 km
Bew├Âlkung: leicht bew├Âlkt 1800 ft
TNCC 240200Z 10009KT 9999 FEW018 28/26 Q1014 NOSIG
EHEH - Eindhoven
Aktualisierung: 24-07-2021 04:25
Klar  
Klar  
   Wind: NO 14.8 km/h
Wind: NO 14.8 km/h
Temperatur: 16°C
Taupunkt: 13°C
Luftfeuchte: 83%
Luftdruck: 1011 hPa
Bew├Âlkt: Klar
Sichtbarkeit: More than 10 km
Bew├Âlkung: Klar
EHEH 240225Z AUTO 05008KT 020V090 9999 NCD 16/13 Q1011 BLU
EHAM - Middelburg
Aktualisierung: 24-07-2021 04:25
Klar  
Klar  
   Wind: ONO 18.5 km/h
Wind: ONO 18.5 km/h
Temperatur: 16°C
Taupunkt: 13°C
Luftfeuchte: 83%
Luftdruck: 1011 hPa
Sichtbarkeit: More than 10 km
Bew├Âlkung: Klar
EHAM 240225Z 06010KT 030V090 CAVOK 16/13 Q1011 NOSIG
EHAM - Delfzijl
Aktualisierung: 24-07-2021 04:25
Klar  
Klar  
   Wind: ONO 18.5 km/h
Wind: ONO 18.5 km/h
Temperatur: 16°C
Taupunkt: 13°C
Luftfeuchte: 83%
Luftdruck: 1011 hPa
Sichtbarkeit: More than 10 km
Bew├Âlkung: Klar
EHAM 240225Z 06010KT 030V090 CAVOK 16/13 Q1011 NOSIG

Script entwickelt von  Saratoga-weather.org Angepasst f├╝r das Template von  Weerstation Leuven

Sie finden Wetter-Infos dieser Station auch auf:

UK Metoffice

European Weather Network

WeatherCloud

Weather Underground

AWEKAS

Neuwetter

Wettersektor

Von uns verwendete Ausr├╝stung:

Wetterstation
Davis VP2

Wetterprogramm
Meteobridge

WetterComputer
Computer

Anbieter
My provider

Davis VP2

Meteobridge

Computer

My provider